Location: Unspecified
(0.0000°N, 0.0000°E)
Time: 08:10:45
(UTC+00:00)

Vanguard 3 - Visible Passes

Search period start: 03 April 2020 00:00
Search period end: 13 April 2020 00:00
Orbit: 508 x 3263 km, 33.4° (Epoch: 02 April)

Date Brightness Start Highest point End Pass type
(mag) Time Alt. Az. Time Alt. Az. Time Alt. Az.
03 Apr 9.4 03:27:46 26° N 03:29:42 29° NNE 03:35:05 10° E visible
03 Apr 7.2 05:35:54 10° WNW 05:42:32 55° SW 05:46:45 10° SE visible
03 Apr 10.8 18:57:05 10° W 19:12:06 44° NNW 19:30:33 10° NE visible
03 Apr 11.3 21:19:35 10° WNW 21:32:42 21° NNW 21:43:58 12° NNE visible
03 Apr 11.4 23:47:19 10° NNW 23:48:34 11° NNW 23:48:34 11° NNW visible
04 Apr 10.4 02:18:40 14° NE 02:18:40 14° NE 02:20:06 10° ENE visible
04 Apr 7.8 04:23:18 23° NW 04:28:41 65° NNE 04:33:48 10° ESE visible
04 Apr 11.2 19:59:19 10° WNW 20:13:44 28° NNW 20:29:20 10° NNE visible
04 Apr 11.2 22:25:52 10° NW 22:36:00 16° N 22:38:55 15° N visible
05 Apr 9.1 03:14:14 38° NNE 03:14:14 38° NNE 03:20:03 10° E visible
05 Apr 7.7 05:19:30 10° WNW 05:26:33 42° SW 05:30:59 10° SSE visible
05 Apr 10.9 18:41:24 10° W 18:55:21 38° NNW 19:13:07 10° NE visible
05 Apr 11.3 21:04:04 10° NW 21:16:32 20° NNW 21:28:36 10° NNE visible
05 Apr 11.3 23:29:41 10° NNW 23:33:42 14° NNW 23:33:42 14° NNW visible
06 Apr 10.6 02:05:11 11° ENE 02:05:11 11° ENE 02:05:23 10° ENE visible
06 Apr 7.7 04:09:49 44° NW 04:12:45 85° NE 04:18:19 10° ESE visible
06 Apr 11.3 19:43:54 10° WNW 19:57:18 25° NNW 20:12:12 10° NNE visible
06 Apr 11.2 22:09:31 10° NW 22:20:08 16° N 22:23:48 15° N visible
07 Apr 9.2 03:00:44 37° ENE 03:00:44 37° ENE 03:04:48 10° ESE visible
07 Apr 8.1 05:05:22 17° W 05:10:30 34° SW 05:15:10 10° SSE visible
07 Apr 11.1 18:25:55 10° W 18:38:47 33° NNW 18:55:34 10° NNE visible
07 Apr 11.3 20:48:36 10° NW 21:00:28 19° N 21:12:13 10° NNE visible
07 Apr 11.2 23:12:05 10° NNW 23:18:21 16° N 23:18:21 16° N visible
08 Apr 7.8 03:56:15 75° WSW 03:56:42 78° SW 04:02:43 10° SE visible
08 Apr 11.3 19:28:41 10° WNW 19:41:02 23° NNW 19:55:03 10° NNE visible
08 Apr 11.2 21:52:58 10° NNW 22:04:16 17° N 22:08:16 16° NNE visible
09 Apr 11.4 00:12:05 10° NNW 00:12:49 11° NNW 00:12:49 11° NNW visible
09 Apr 9.7 02:47:05 25° ESE 02:47:05 25° ESE 02:49:24 10° ESE visible
09 Apr 8.5 04:51:43 24° WSW 04:54:21 29° SW 04:59:15 10° SSE visible
09 Apr 11.2 18:10:39 10° WNW 18:22:25 29° NNW 18:37:56 10° NNE visible
09 Apr 11.4 20:33:05 10° NW 20:44:29 18° N 20:55:59 10° NNE visible
09 Apr 11.2 22:54:30 10° NNW 23:02:39 19° N 23:02:39 19° N visible
10 Apr 8.4 03:42:29 50° SSE 03:42:29 50° SSE 03:47:01 10° SE visible
10 Apr 11.4 19:13:36 10° NW 19:24:55 20° NNW 19:37:54 10° NNE visible
10 Apr 11.1 21:36:17 10° NNW 21:48:20 18° N 21:52:27 17° NNE visible
10 Apr 11.3 23:54:11 10° NNW 23:56:59 15° NNW 23:56:59 15° NNW visible
11 Apr 10.2 02:33:12 14° ESE 02:33:12 14° ESE 02:33:51 10° ESE visible
11 Apr 8.9 04:37:48 25° SW 04:38:09 26° SW 04:43:17 10° SSE visible
11 Apr 11.3 20:17:28 10° NW 20:28:33 17° N 20:39:55 10° NE visible
11 Apr 11.1 22:36:56 10° NNW 22:46:44 22° N 22:46:44 22° N visible
12 Apr 9.3 03:28:27 28° SSE 03:28:27 28° SSE 03:31:14 10° SE visible
12 Apr 11.4 18:58:40 10° NW 19:08:55 18° N 19:20:47 10° NNE visible
12 Apr 11.1 21:19:28 10° NNW 21:32:19 20° NNE 21:36:28 19° NNE visible
